,,,PA_Meas_PMT16A,,PR_Meas_QMR101_102,,RH_Meas_QMH101,,SR_Meas_QMS101,,TA_Meas_QMH101,,GenWind,,GenWind,
date,time,status,PA,status,PR,status,RH,status,SR,status,TA,status,DirAvg,status,SpdAvg,
2008-06-07, 00:00:04,VALID,1004.07,VALID,0,VALID,92.8969,VALID,0,VALID,24.0363,VALID,34,VALID,3.6043,
2008-06-07, 00:01:04,VALID,1004.09,VALID,1.5,VALID,92.6451,VALID,0,VALID,23.9177,VALID,24,VALID,2.46016,
2008-06-07, 00:02:04,VALID,1004.03,VALID,0,VALID,92.4163,VALID,0,VALID,23.7637,VALID,66,VALID,3.27187,
2008-06-07, 00:03:04,VALID,1004.05,VALID,0,VALID,92.729,VALID,0,VALID,23.6859,VALID,47,VALID,2.10938,
2008-06-07, 00:04:04,VALID,1004.02,VALID,0,VALID,93.1563,VALID,0,VALID,23.6275,VALID,96,VALID,1.75273,
2008-06-07, 00:05:04,VALID,1003.95,VALID,0,VALID,93.2097,VALID,0,VALID,23.5868,VALID,9,VALID,2.94961,
2008-06-07, 00:06:04,VALID,1003.94,VALID,0.5,VALID,93.3088,VALID,0,VALID,23.6293,VALID,90,VALID,2.62188,
2008-06-07, 00:07:04,VALID,1003.91,VALID,0.5,VALID,93.5758,VALID,0,VALID,23.5691,VALID,22,VALID,1.17891,
2008-06-07, 00:08:04,VALID,1003.85,VALID,0.5,VALID,93.5301,VALID,0,VALID,23.4912,VALID,44,VALID,2.43125,
2008-06-07, 00:09:04,VALID,1003.77,VALID,0,VALID,93.7132,VALID,0,VALID,23.4523,VALID,27,VALID,2.3918,
2008-06-07, 00:10:04,VALID,1003.72,VALID,0,VALID,93.7284,VALID,0,VALID,23.4311,VALID,24,VALID,1.02188,
2008-06-07, 00:11:04,VALID,1003.71,VALID,0,VALID,93.881,VALID,0,VALID,23.4328,VALID,23,VALID,1.48281,
2008-06-07, 00:12:04,VALID,1003.71,VALID,0,VALID,93.9115,VALID,0,VALID,23.4116,VALID,65,VALID,1.43477,
2008-06-07, 00:13:04,VALID,1003.71,VALID,0,VALID,94.0565,VALID,0,VALID,23.4134,VALID,49,VALID,0.834766,
2008-06-07, 00:14:04,VALID,1003.72,VALID,0,VALID,94.148,VALID,0,VALID,23.3921,VALID,74,VALID,1.12539,
2008-06-07, 00:15:04,VALID,1003.7,VALID,0,VALID,94.1862,VALID,0,VALID,23.3727,VALID,43,VALID,0.601563,
2008-06-07, 00:16:04,VALID,1003.68,VALID,0,VALID,94.2396,VALID,0,VALID,23.3744,VALID,77,VALID,0.961719,
2008-06-07, 00:17:04,VALID,1003.63,VALID,0,VALID,94.2319,VALID,0,VALID,23.3355,VALID,91,VALID,1.01836,
2008-06-07, 00:18:04,VALID,1003.62,VALID,0,VALID,94.3311,VALID,0.100563,VALID,23.4116,VALID,22,VALID,1.2457,
2008-06-07, 00:19:04,VALID,1003.58,VALID,0,VALID,94.2319,VALID,0,VALID,23.4311,VALID,69,VALID,0.85625,
2008-06-07, 00:20:04,VALID,1003.56,VALID,0,VALID,94.1328,VALID,0,VALID,23.4523,VALID,56,VALID,1.01719,
2008-06-07, 00:21:04,VALID,1003.56,VALID,0,VALID,94.2319,VALID,0,VALID,23.4311,VALID,31,VALID,0.312891,
2008-06-07, 00:22:04,VALID,1003.55,VALID,0,VALID,94.1251,VALID,0,VALID,23.4912,VALID,71,VALID,1.73555,
2008-06-07, 00:23:04,VALID,1003.51,VALID,0,VALID,94.1175,VALID,0,VALID,23.5496,VALID,90,VALID,0.629297,
2008-06-07, 00:24:04,VALID,1003.49,VALID,0,VALID,94.0336,VALID,0,VALID,23.5496,VALID,62,VALID,0.671094,
2008-06-07, 00:25:04,VALID,1003.48,VALID,0,VALID,94.0641,VALID,0,VALID,23.5089,VALID,37,VALID,0.686328,
2008-06-07, 00:26:04,VALID,1003.45,VALID,0,VALID,94.087,VALID,0,VALID,23.5302,VALID,77,VALID,0.569531,
2008-06-07, 00:27:04,VALID,1003.43,VALID,0,VALID,94.1022,VALID,0,VALID,23.5089,VALID,74,VALID,0.752344,
2008-06-07, 00:28:04,VALID,1003.44,VALID,0,VALID,94.1709,VALID,0,VALID,23.5302,VALID,81,VALID,0.208203,
2008-06-07, 00:29:04,VALID,1003.41,VALID,0,VALID,94.2472,VALID,0,VALID,23.5302,VALID,32,VALID,0.464844,
2008-06-07, 00:30:04,VALID,1003.37,VALID,0,VALID,94.2777,VALID,0.100563,VALID,23.5496,VALID,45,VALID,1.30078,
2008-06-07, 00:31:04,VALID,1003.38,VALID,0,VALID,94.3158,VALID,0,VALID,23.5868,VALID,21,VALID,0.415234,
2008-06-07, 00:32:04,VALID,1003.35,VALID,0,VALID,94.2319,VALID,0.100563,VALID,23.5655,VALID,48,VALID,0.574609,
2008-06-07, 00:33:04,VALID,1003.36,VALID,0,VALID,94.1175,VALID,0,VALID,23.6452,VALID,24,VALID,1.22148,
2008-06-07, 00:34:04,VALID,1003.38,VALID,0,VALID,93.942,VALID,0,VALID,23.7053,VALID,71,VALID,1.31211,
2008-06-07, 00:35:04,VALID,1003.4,VALID,0,VALID,93.7971,VALID,0,VALID,23.8027,VALID,30,VALID,0.548047,
2008-06-07, 00:36:04,VALID,1003.4,VALID,0,VALID,93.6903,VALID,0,VALID,23.7814,VALID,29,VALID,0.776172,
2008-06-07, 00:37:04,VALID,1003.41,VALID,0,VALID,93.6979,VALID,0.100563,VALID,23.7832,VALID,5,VALID,0.287109,
2008-06-07, 00:38:04,VALID,1003.42,VALID,0,VALID,93.4462,VALID,0,VALID,23.7832,VALID,28,VALID,1.35586,
2008-06-07, 00:39:04,VALID,1003.42,VALID,0,VALID,93.4004,VALID,0,VALID,23.8027,VALID,57,VALID,0.748438,
2008-06-07, 00:40:04,VALID,1003.44,VALID,0,VALID,93.3394,VALID,0,VALID,23.8009,VALID,27,VALID,0.85,
2008-06-07, 00:41:04,VALID,1003.43,VALID,0,VALID,93.2631,VALID,0,VALID,23.8009,VALID,13,VALID,0.735156,
2008-06-07, 00:42:04,VALID,1003.41,VALID,0,VALID,93.0647,VALID,0,VALID,23.8221,VALID,17,VALID,1.49883,
2008-06-07, 00:43:04,VALID,1003.42,VALID,0,VALID,92.874,VALID,0,VALID,23.8787,VALID,73,VALID,0.582812,
2008-06-07, 00:44:04,VALID,1003.44,VALID,0,VALID,92.7367,VALID,0,VALID,23.9195,VALID,17,VALID,1.28203,
2008-06-07, 00:45:04,VALID,1003.44,VALID,0,VALID,92.8282,VALID,0.100563,VALID,23.9177,VALID,16,VALID,0.604688,
2008-06-07, 00:46:04,VALID,1003.47,VALID,0,VALID,92.7824,VALID,0,VALID,23.9389,VALID,15,VALID,1.47695,
2008-06-07, 00:47:04,VALID,1003.49,VALID,0,VALID,92.3552,VALID,0,VALID,23.9761,VALID,16,VALID,1.6957,
2008-06-07, 00:48:04,VALID,1003.46,VALID,0,VALID,92.4239,VALID,0,VALID,24.0363,VALID,22,VALID,0.765234,
2008-06-07, 00:49:04,VALID,1003.48,VALID,0,VALID,92.4239,VALID,0,VALID,23.9955,VALID,14,VALID,1.37773,
2008-06-07, 00:50:04,VALID,1003.48,VALID,0,VALID,92.4849,VALID,0,VALID,23.9973,VALID,355,VALID,0.741797,
2008-06-07, 00:51:04,VALID,1003.47,VALID,0,VALID,92.4239,VALID,0,VALID,23.9177,VALID,7,VALID,1.48164,
2008-06-07, 00:52:04,VALID,1003.49,VALID,0,VALID,92.7519,VALID,0,VALID,23.8203,VALID,19,VALID,0.807031,
2008-06-07, 00:53:04,VALID,1003.47,VALID,0,VALID,92.8206,VALID,0,VALID,23.7619,VALID,359,VALID,1.60469,
2008-06-07, 00:54:04,VALID,1003.46,VALID,0,VALID,92.9426,VALID,0,VALID,23.7248,VALID,15,VALID,1.66445,
2008-06-07, 00:55:04,VALID,1003.45,VALID,0,VALID,93.0876,VALID,0,VALID,23.7248,VALID,340,VALID,1.05469,
2008-06-07, 00:56:04,VALID,1003.47,VALID,0,VALID,93.3165,VALID,0,VALID,23.7248,VALID,20,VALID,0.767578,
2008-06-07, 00:57:04,VALID,1003.5,VALID,0,VALID,93.347,VALID,0,VALID,23.7053,VALID,351,VALID,1.32383,
2008-06-07, 00:58:04,VALID,1003.49,VALID,0,VALID,93.2783,VALID,0.100563,VALID,23.6257,VALID,345,VALID,1.55352,
2008-06-07, 00:59:04,VALID,1003.51,VALID,0,VALID,93.1715,VALID,0,VALID,23.608,VALID,3,VALID,1.71758,
2008-06-07, 01:00:04,VALID,1003.52,VALID,0,VALID,93.1791,VALID,0,VALID,23.5496,VALID,351,VALID,1.55313,
2008-06-07, 01:01:04,VALID,1003.57,VALID,0,VALID,93.2554,VALID,0.100563,VALID,23.5284,VALID,358,VALID,1.38086,
2008-06-07, 01:02:04,VALID,1003.58,VALID,0,VALID,93.347,VALID,0,VALID,23.5302,VALID,17,VALID,1.18789,
2008-06-07, 01:03:04,VALID,1003.56,VALID,0,VALID,93.4309,VALID,0,VALID,23.5302,VALID,7,VALID,1.33281,
2008-06-07, 01:04:04,VALID,1003.56,VALID,0,VALID,93.4843,VALID,0.100563,VALID,23.5478,VALID,11,VALID,1.02227,
2008-06-07, 01:05:04,VALID,1003.54,VALID,0,VALID,93.4156,VALID,0,VALID,23.5496,VALID,355,VALID,1.31523,
2008-06-07, 01:06:04,VALID,1003.52,VALID,0,VALID,93.2554,VALID,0.100563,VALID,23.5496,VALID,24,VALID,1.57656,
2008-06-07, 01:07:04,VALID,1003.54,VALID,0,VALID,93.0037,VALID,0,VALID,23.6469,VALID,21,VALID,1.70586,
2008-06-07, 01:08:04,VALID,1003.51,VALID,0,VALID,92.7367,VALID,0.100563,VALID,23.7035,VALID,356,VALID,1.31367,
2008-06-07, 01:09:04,VALID,1003.46,VALID,0,VALID,92.5993,VALID,0,VALID,23.7035,VALID,357,VALID,1.05586,
2008-06-07, 01:10:04,VALID,1003.48,VALID,0,VALID,92.6222,VALID,0,VALID,23.7248,VALID,360,VALID,0.968359,
2008-06-07, 01:11:04,VALID,1003.46,VALID,0,VALID,92.5841,VALID,0,VALID,23.7248,VALID,3,VALID,0.85,
2008-06-07, 01:12:04,VALID,1003.47,VALID,0,VALID,92.5536,VALID,0,VALID,23.7248,VALID,16,VALID,0.908594,
2008-06-07, 01:13:04,VALID,1003.48,VALID,0,VALID,92.5307,VALID,0,VALID,23.7053,VALID,9,VALID,0.698047,
2008-06-07, 01:14:04,VALID,1003.5,VALID,0,VALID,92.1492,VALID,0,VALID,23.7248,VALID,32,VALID,1.87578,
2008-06-07, 01:15:04,VALID,1003.5,VALID,0,VALID,92.2637,VALID,0,VALID,23.7425,VALID,21,VALID,0.392969,
2008-06-07, 01:16:04,VALID,1003.51,VALID,0,VALID,91.9128,VALID,0,VALID,23.8027,VALID,34,VALID,0.798828,
2008-06-07, 01:17:04,VALID,1003.55,VALID,0,VALID,91.8746,VALID,0,VALID,23.8009,VALID,27,VALID,0.691797,
2008-06-07, 01:18:04,VALID,1003.55,VALID,0,VALID,91.8746,VALID,0.100563,VALID,23.8221,VALID,357,VALID,0.810547,
2008-06-07, 01:19:04,VALID,1003.58,VALID,0,VALID,91.989,VALID,0,VALID,23.8221,VALID,1,VALID,0.437891,
2008-06-07, 01:20:04,VALID,1003.66,VALID,0,VALID,92.0653,VALID,0,VALID,23.7991,VALID,41,VALID,0.719531,
2008-06-07, 01:21:04,VALID,1003.68,VALID,0,VALID,92.0043,VALID,0,VALID,23.8416,VALID,102,VALID,0.687891,
2008-06-07, 01:22:04,VALID,1003.69,VALID,0,VALID,92.0196,VALID,0,VALID,23.8593,VALID,103,VALID,0.444531,
2008-06-07, 01:23:04,VALID,1003.69,VALID,0,VALID,92.0196,VALID,0,VALID,23.8805,VALID,103,VALID,0.114844,
2008-06-07, 01:24:04,VALID,1003.65,VALID,0,VALID,92.134,VALID,0.100563,VALID,23.8203,VALID,103,VALID,0.361328,
2008-06-07, 01:25:04,VALID,1003.64,VALID,0,VALID,92.2866,VALID,0,VALID,23.8416,VALID,103,VALID,0.0921875,
2008-06-07, 01:26:04,VALID,1003.64,VALID,0,VALID,92.2637,VALID,0.100563,VALID,23.8221,VALID,222,VALID,0.834375,
2008-06-07, 01:27:04,VALID,1003.6,VALID,0,VALID,92.4468,VALID,0,VALID,23.7814,VALID,220,VALID,1.05039,
2008-06-07, 01:28:04,VALID,1003.62,VALID,0,VALID,92.7062,VALID,0,VALID,23.7832,VALID,221,VALID,0.563281,
2008-06-07, 01:29:04,VALID,1003.62,VALID,0,VALID,92.813,VALID,0,VALID,23.7425,VALID,221,VALID,0.172656,
2008-06-07, 01:30:04,VALID,1003.58,VALID,0,VALID,93.1105,VALID,0,VALID,23.7443,VALID,221,VALID,0.274609,
2008-06-07, 01:31:04,VALID,1003.57,VALID,0,VALID,93.3546,VALID,0,VALID,23.7425,VALID,264,VALID,0.492188,
2008-06-07, 01:32:04,VALID,1003.59,VALID,0,VALID,93.408,VALID,0,VALID,23.723,VALID,173,VALID,0.64375,
2008-06-07, 01:33:04,VALID,1003.63,VALID,0,VALID,93.469,VALID,0,VALID,23.7461,VALID,160,VALID,0.230078,
2008-06-07, 01:34:04,VALID,1003.66,VALID,0,VALID,93.6064,VALID,0,VALID,23.7035,VALID,160,VALID,0.241797,
2008-06-07, 01:35:04,VALID,1003.7,VALID,0,VALID,93.5606,VALID,0,VALID,23.6859,VALID,323,VALID,0.264844,
2008-06-07, 01:36:04,VALID,1003.73,VALID,0,VALID,93.614,VALID,0,VALID,23.6646,VALID,322,VALID,0.179297,
2008-06-07, 01:37:04,VALID,1003.7,VALID,0,VALID,93.7589,VALID,0,VALID,23.6859,VALID,323,VALID,0.296094,
2008-06-07, 01:38:04,VALID,1003.71,VALID,0,VALID,93.7666,VALID,0,VALID,23.6646,VALID,349,VALID,0.676953,
2008-06-07, 01:39:04,VALID,1003.67,VALID,0,VALID,93.8123,VALID,0,VALID,23.6452,VALID,8,VALID,0.873047,
2008-06-07, 01:40:04,VALID,1003.68,VALID,0,VALID,93.8734,VALID,0,VALID,23.6469,VALID,20,VALID,0.59375,
2008-06-07, 01:41:04,VALID,1003.67,VALID,0,VALID,93.9191,VALID,0,VALID,23.6062,VALID,13,VALID,0.546094,
2008-06-07, 01:42:04,VALID,1003.63,VALID,0,VALID,93.9573,VALID,0,VALID,23.608,VALID,13,VALID,0.364062,
2008-06-07, 01:43:04,VALID,1003.61,VALID,0,VALID,94.0717,VALID,0,VALID,23.5673,VALID,13,VALID,0.198828,
2008-06-07, 01:44:04,VALID,1003.59,VALID,0,VALID,94.0565,VALID,0,VALID,23.5478,VALID,327,VALID,0.623438,
2008-06-07, 01:45:04,VALID,1003.56,VALID,0,VALID,94.0794,VALID,0,VALID,23.5691,VALID,330,VALID,0.462109,
2008-06-07, 01:46:04,VALID,1003.54,VALID,0,VALID,94.1175,VALID,0,VALID,23.5673,VALID,351,VALID,0.839453,
2008-06-07, 01:47:04,VALID,1003.57,VALID,0,VALID,94.0412,VALID,0,VALID,23.5478,VALID,355,VALID,0.591016,
2008-06-07, 01:48:04,VALID,1003.54,VALID,0,VALID,94.1251,VALID,0.100563,VALID,23.5284,VALID,355,VALID,0.191797,
2008-06-07, 01:49:04,VALID,1003.49,VALID,0,VALID,94.1556,VALID,0,VALID,23.5302,VALID,289,VALID,1.09063,
2008-06-07, 01:50:04,VALID,1003.48,VALID,0,VALID,94.1709,VALID,0.100563,VALID,23.4894,VALID,2,VALID,0.969922,
2008-06-07, 01:51:04,VALID,1003.44,VALID,0,VALID,94.1785,VALID,0,VALID,23.5107,VALID,321,VALID,0.762891,
2008-06-07, 01:52:04,VALID,1003.42,VALID,0,VALID,94.1938,VALID,0,VALID,23.5089,VALID,348,VALID,0.542969,
2008-06-07, 01:53:04,VALID,1003.37,VALID,0,VALID,94.1556,VALID,0,VALID,23.47,VALID,355,VALID,0.786328,
2008-06-07, 01:54:04,VALID,1003.36,VALID,0,VALID,94.2243,VALID,0,VALID,23.4912,VALID,343,VALID,0.295703,
2008-06-07, 01:55:04,VALID,1003.36,VALID,0,VALID,94.2624,VALID,0,VALID,23.4718,VALID,342,VALID,0.138281,
2008-06-07, 01:56:04,VALID,1003.39,VALID,0,VALID,94.293,VALID,0,VALID,23.4505,VALID,348,VALID,0.715234,
2008-06-07, 01:57:04,VALID,1003.41,VALID,0,VALID,94.3006,VALID,0,VALID,23.4505,VALID,330,VALID,0.369922,
2008-06-07, 01:58:04,VALID,1003.38,VALID,0,VALID,94.3235,VALID,0,VALID,23.4523,VALID,344,VALID,0.764844,
2008-06-07, 01:59:04,VALID,1003.35,VALID,0,VALID,94.3311,VALID,0,VALID,23.4116,VALID,7,VALID,0.520312,
2008-06-07, 02:00:04,VALID,1003.35,VALID,0,VALID,94.3769,VALID,0.100563,VALID,23.3921,VALID,7,VALID,0.296094,
2008-06-07, 02:01:04,VALID,1003.32,VALID,0,VALID,94.415,VALID,0.100563,VALID,23.3921,VALID,353,VALID,0.113281,
2008-06-07, 02:02:04,VALID,1003.28,VALID,0,VALID,94.4684,VALID,0.100563,VALID,23.3727,VALID,12,VALID,0.244141,
2008-06-07, 02:03:04,VALID,1003.24,VALID,0,VALID,94.5523,VALID,0,VALID,23.3939,VALID,12,VALID,0.00234375,
2008-06-07, 02:04:04,VALID,1003.16,VALID,0,VALID,94.5752,VALID,0.100563,VALID,23.3727,VALID,11,VALID,0.186328,
2008-06-07, 02:05:04,VALID,1003.18,VALID,0,VALID,94.6057,VALID,0,VALID,23.3727,VALID,10,VALID,0.273047,
2008-06-07, 02:06:04,VALID,1003.16,VALID,0,VALID,94.5752,VALID,0,VALID,23.3727,VALID,10,VALID,0.106641,
2008-06-07, 02:07:04,VALID,1003.14,VALID,0,VALID,94.5829,VALID,0,VALID,23.3744,VALID,10,VALID,0.41875,
2008-06-07, 02:08:04,VALID,1003.17,VALID,0,VALID,94.5829,VALID,0,VALID,23.3143,VALID,10,VALID,0.120703,
2008-06-07, 02:09:04,VALID,1003.15,VALID,0,VALID,94.6134,VALID,0.100563,VALID,23.3143,VALID,10,VALID,0.0078125,
2008-06-07, 02:10:04,VALID,1003.15,VALID,0,VALID,94.6515,VALID,0,VALID,23.316,VALID,10,VALID,0,
2008-06-07, 02:11:04,VALID,1003.14,VALID,0,VALID,94.7049,VALID,0,VALID,23.2966,VALID,10,VALID,0,
2008-06-07, 02:12:04,VALID,1003.15,VALID,0,VALID,94.6897,VALID,0,VALID,23.2771,VALID,10,VALID,0,
2008-06-07, 02:13:04,VALID,1003.13,VALID,0,VALID,94.7507,VALID,0,VALID,23.2577,VALID,10,VALID,0.289453,
2008-06-07, 02:14:04,VALID,1003.17,VALID,0,VALID,94.8956,VALID,0,VALID,23.2364,VALID,10,VALID,0.370313,
2008-06-07, 02:15:04,VALID,1003.17,VALID,0,VALID,94.888,VALID,0,VALID,23.2364,VALID,10,VALID,0.248437,
2008-06-07, 02:16:04,VALID,1003.21,VALID,0,VALID,94.8422,VALID,0,VALID,23.1975,VALID,10,VALID,0.296875,
2008-06-07, 02:17:04,VALID,1003.22,VALID,0,VALID,94.8804,VALID,0.100563,VALID,23.178,VALID,10,VALID,0,
2008-06-07, 02:18:04,VALID,1003.21,VALID,0,VALID,94.888,VALID,0,VALID,23.1993,VALID,10,VALID,0,
2008-06-07, 02:19:04,VALID,1003.22,VALID,0,VALID,94.9414,VALID,0.100563,VALID,23.1586,VALID,10,VALID,0,
2008-06-07, 02:20:04,VALID,1003.23,VALID,0,VALID,95.0406,VALID,0,VALID,23.1391,VALID,10,VALID,0,
2008-06-07, 02:21:04,VALID,1003.19,VALID,0,VALID,95.1093,VALID,0.100563,VALID,23.1586,VALID,10,VALID,0,
2008-06-07, 02:22:04,VALID,1003.16,VALID,0,VALID,95.1245,VALID,0.100563,VALID,23.1586,VALID,10,VALID,0,
2008-06-07, 02:23:04,VALID,1003.16,VALID,0,VALID,95.1474,VALID,0.100563,VALID,23.1586,VALID,10,VALID,0.338281,
2008-06-07, 02:24:04,VALID,1003.14,VALID,0,VALID,95.1474,VALID,0,VALID,23.1391,VALID,10,VALID,0.226172,
2008-06-07, 02:25:04,VALID,1003.15,VALID,0,VALID,95.2084,VALID,0.100563,VALID,23.1391,VALID,316,VALID,0.521094,
2008-06-07, 02:26:04,VALID,1003.13,VALID,0,VALID,95.1855,VALID,0.100563,VALID,23.1197,VALID,314,VALID,0,
2008-06-07, 02:27:04,VALID,1003.14,VALID,0,VALID,95.1703,VALID,0.100563,VALID,23.1197,VALID,315,VALID,0,
2008-06-07, 02:28:04,VALID,1003.14,VALID,0,VALID,95.2008,VALID,0,VALID,23.1197,VALID,315,VALID,0,
2008-06-07, 02:29:04,VALID,1003.14,VALID,0,VALID,95.2695,VALID,0.100563,VALID,23.1197,VALID,309,VALID,0.667578,
2008-06-07, 02:30:04,VALID,1003.13,VALID,0,VALID,95.3457,VALID,0,VALID,23.1197,VALID,308,VALID,0.445703,
2008-06-07, 02:31:04,VALID,1003.13,VALID,0,VALID,95.3763,VALID,0.100563,VALID,23.1197,VALID,307,VALID,0.276172,
2008-06-07, 02:32:04,VALID,1003.15,VALID,0,VALID,95.422,VALID,0.100563,VALID,23.1391,VALID,307,VALID,0.59375,
2008-06-07, 02:33:04,VALID,1003.15,VALID,0,VALID,95.3381,VALID,0.100563,VALID,23.1374,VALID,291,VALID,1.08867,
2008-06-07, 02:34:04,VALID,1003.16,VALID,0,VALID,95.2008,VALID,0.100563,VALID,23.1798,VALID,289,VALID,1.24375,
2008-06-07, 02:35:04,VALID,1003.14,VALID,0,VALID,95.1703,VALID,0.100563,VALID,23.1391,VALID,292,VALID,1.0707,
2008-06-07, 02:36:04,VALID,1003.15,VALID,0,VALID,95.1398,VALID,0.100563,VALID,23.1197,VALID,284,VALID,1.34063,
2008-06-07, 02:37:04,VALID,1003.12,VALID,0,VALID,95.1093,VALID,0,VALID,23.1197,VALID,290,VALID,1.6293,
2008-06-07, 02:38:04,VALID,1003.14,VALID,0,VALID,95.0787,VALID,0,VALID,23.1002,VALID,293,VALID,1.22695,
2008-06-07, 02:39:04,VALID,1003.14,VALID,0,VALID,95.1321,VALID,0,VALID,23.1214,VALID,295,VALID,0.514453,
2008-06-07, 02:40:04,VALID,1003.11,VALID,0,VALID,95.1321,VALID,0,VALID,23.0807,VALID,290,VALID,0.758984,
2008-06-07, 02:41:04,VALID,1003.1,VALID,0,VALID,95.1169,VALID,0,VALID,23.0613,VALID,292,VALID,0.135156,
2008-06-07, 02:42:04,VALID,1003.12,VALID,0,VALID,95.1932,VALID,0,VALID,23.0807,VALID,298,VALID,0.690234,
2008-06-07, 02:43:04,VALID,1003.08,VALID,0,VALID,95.2923,VALID,0,VALID,23.0613,VALID,298,VALID,0.520703,
2008-06-07, 02:44:04,VALID,1003.06,VALID,0,VALID,95.2695,VALID,0.100563,VALID,23.0807,VALID,298,VALID,0.116406,
2008-06-07, 02:45:04,VALID,1003.03,VALID,0,VALID,95.2313,VALID,0.100563,VALID,23.0807,VALID,298,VALID,0.192578,
2008-06-07, 02:46:04,VALID,1002.97,VALID,0,VALID,95.1932,VALID,0.100563,VALID,23.0807,VALID,298,VALID,0.162891,
2008-06-07, 02:47:04,VALID,1002.93,VALID,0,VALID,95.1703,VALID,0,VALID,23.0613,VALID,298,VALID,0.214844,
2008-06-07, 02:48:04,VALID,1002.91,VALID,0,VALID,95.1474,VALID,0.100563,VALID,23.0613,VALID,298,VALID,0.343359,
2008-06-07, 02:49:04,VALID,1002.89,VALID,0,VALID,95.1474,VALID,0.100563,VALID,23.0224,VALID,298,VALID,0.283203,
2008-06-07, 02:50:04,VALID,1002.9,VALID,0,VALID,95.155,VALID,0,VALID,23.0046,VALID,298,VALID,0.184375,
2008-06-07, 02:51:04,VALID,1002.89,VALID,0,VALID,95.1932,VALID,0,VALID,22.9834,VALID,298,VALID,0.0703125,
2008-06-07, 02:52:04,VALID,1002.88,VALID,0,VALID,95.2008,VALID,0,VALID,22.9852,VALID,298,VALID,0.250781,
2008-06-07, 02:53:04,VALID,1002.89,VALID,0,VALID,95.2237,VALID,0,VALID,22.9657,VALID,298,VALID,0.480859,
2008-06-07, 02:54:04,VALID,1002.91,VALID,0,VALID,95.2466,VALID,0.100563,VALID,22.9251,VALID,298,VALID,0.299609,
2008-06-07, 02:55:04,VALID,1002.91,VALID,0,VALID,95.3076,VALID,0.100563,VALID,22.9463,VALID,298,VALID,0.458594,
2008-06-07, 02:56:04,VALID,1002.98,VALID,0,VALID,95.3686,VALID,0,VALID,22.9056,VALID,300,VALID,0.515234,
2008-06-07, 02:57:04,VALID,1002.97,VALID,0,VALID,95.4068,VALID,0.100563,VALID,22.9039,VALID,300,VALID,0.446875,
2008-06-07, 02:58:04,VALID,1002.96,VALID,0,VALID,95.3991,VALID,0.100563,VALID,22.9463,VALID,301,VALID,0.501172,
2008-06-07, 02:59:04,VALID,1002.96,VALID,0,VALID,95.4297,VALID,0,VALID,22.9056,VALID,342,VALID,0.477344,
2008-06-07, 03:00:04,VALID,1002.95,VALID,0,VALID,95.4678,VALID,0,VALID,22.9056,VALID,344,VALID,0.292578,
2008-06-07, 03:01:04,VALID,1002.96,VALID,0,VALID,95.5288,VALID,0,VALID,22.9056,VALID,342,VALID,0.0664063,
2008-06-07, 03:02:04,VALID,1002.91,VALID,0,VALID,95.5212,VALID,0.100563,VALID,22.9251,VALID,342,VALID,0.0140625,
2008-06-07, 03:03:04,VALID,1002.92,VALID,0,VALID,95.5822,VALID,0,VALID,22.9251,VALID,340,VALID,0.0496094,
2008-06-07, 03:04:04,VALID,1002.84,VALID,0,VALID,95.567,VALID,0,VALID,22.9251,VALID,340,VALID,0,
2008-06-07, 03:05:04,VALID,1002.82,VALID,0,VALID,95.6356,VALID,0,VALID,22.9657,VALID,340,VALID,0.101172,
2008-06-07, 03:06:04,VALID,1002.83,VALID,0,VALID,95.6662,VALID,0,VALID,22.9657,VALID,340,VALID,0.237891,
2008-06-07, 03:07:04,VALID,1002.85,VALID,0,VALID,95.6967,VALID,0,VALID,22.9852,VALID,340,VALID,0.139844,
2008-06-07, 03:08:04,VALID,1002.9,VALID,0,VALID,95.7196,VALID,0,VALID,22.9834,VALID,340,VALID,0.432422,
2008-06-07, 03:09:04,VALID,1002.95,VALID,0,VALID,95.689,VALID,0,VALID,23.0241,VALID,352,VALID,0.865625,
2008-06-07, 03:10:04,VALID,1002.99,VALID,0,VALID,95.6356,VALID,0,VALID,22.9834,VALID,358,VALID,0.550781,
2008-06-07, 03:11:04,VALID,1003.03,VALID,0,VALID,95.6738,VALID,0.100563,VALID,23.0046,VALID,282,VALID,0.716797,
2008-06-07, 03:12:04,VALID,1002.62,VALID,0,VALID,95.7348,VALID,0,VALID,23.0029,VALID,339,VALID,0.440234,
2008-06-07, 03:13:04,VALID,1002.33,VALID,0,VALID,95.8035,VALID,0.100563,VALID,23.0418,VALID,285,VALID,0.994531,
2008-06-07, 03:14:04,VALID,1002.1,VALID,0,VALID,95.8416,VALID,0,VALID,23.0842,VALID,259,VALID,0.618359,
2008-06-07, 07:23:04,VALID,1005.16,VALID,0,VALID,95.689,VALID,49.2758,VALID,23.1214,VALID,22,VALID,1.14922,
2008-06-07, 07:24:04,VALID,1005.21,VALID,0,VALID,95.7196,VALID,49.8792,VALID,23.1214,VALID,27,VALID,0.441016,
2008-06-07, 07:25:04,VALID,1005.2,VALID,0,VALID,95.6814,VALID,50.4826,VALID,23.1019,VALID,18,VALID,1.10547,
2008-06-07, 07:26:04,VALID,1005.28,VALID,0,VALID,95.6738,VALID,50.8848,VALID,23.1019,VALID,18,VALID,0.585156,
2008-06-07, 07:27:04,VALID,1005.26,VALID,0,VALID,95.6128,VALID,51.086,VALID,23.0825,VALID,3,VALID,0.570703,
2008-06-07, 07:28:04,VALID,1005.29,VALID,0,VALID,95.5822,VALID,51.3877,VALID,23.0842,VALID,357,VALID,0.709375,
2008-06-07, 07:29:04,VALID,1005.29,VALID,0,VALID,95.3686,VALID,51.6894,VALID,23.0241,VALID,8,VALID,0.926172,
2008-06-07, 07:30:04,VALID,1005.31,VALID,0,VALID,95.2923,VALID,52.3933,VALID,23.0436,VALID,352,VALID,1.02539,
2008-06-07, 07:31:04,VALID,1005.29,VALID,0,VALID,95.3381,VALID,52.9967,VALID,23.0453,VALID,16,VALID,0.577344,
2008-06-07, 07:32:04,VALID,1005.31,VALID,0,VALID,95.4373,VALID,53.8012,VALID,23.063,VALID,11,VALID,0.539453,
2008-06-07, 07:33:04,VALID,1005.34,VALID,0,VALID,95.4449,VALID,54.304,VALID,23.063,VALID,11,VALID,0.592969,
2008-06-07, 07:34:04,VALID,1005.34,VALID,0,VALID,95.4373,VALID,54.6057,VALID,23.063,VALID,11,VALID,0.556641,
2008-06-07, 07:35:04,VALID,1005.35,VALID,0,VALID,95.4526,VALID,54.7062,VALID,23.0825,VALID,338,VALID,0.629687,
2008-06-07, 07:36:04,VALID,1005.36,VALID,0,VALID,95.422,VALID,54.7062,VALID,23.0825,VALID,353,VALID,0.823828,
2008-06-07, 07:37:04,VALID,1005.36,VALID,0,VALID,95.3152,VALID,55.0079,VALID,23.0613,VALID,356,VALID,0.600391,
2008-06-07, 07:38:04,VALID,1005.38,VALID,0,VALID,95.2771,VALID,55.3096,VALID,23.0613,VALID,356,VALID,1.00625,
2008-06-07, 07:39:04,VALID,1005.36,VALID,0,VALID,95.2618,VALID,56.2147,VALID,23.0807,VALID,5,VALID,0.592969,
2008-06-07, 07:40:04,VALID,1005.38,VALID,0,VALID,95.1932,VALID,57.522,VALID,23.1002,VALID,5,VALID,0.818359,
2008-06-07, 07:41:04,VALID,1005.35,VALID,0,VALID,95.1398,VALID,59.131,VALID,23.1019,VALID,356,VALID,0.856641,
2008-06-07, 07:42:04,VALID,1005.32,VALID,0,VALID,95.0864,VALID,60.8406,VALID,23.1214,VALID,353,VALID,0.808203,
2008-06-07, 07:43:04,VALID,1005.32,VALID,0,VALID,95.094,VALID,62.7513,VALID,23.1002,VALID,323,VALID,0.149219,
2008-06-07, 07:44:04,VALID,1005.32,VALID,0,VALID,94.9796,VALID,64.4608,VALID,23.1002,VALID,351,VALID,0.908203,
2008-06-07, 07:45:04,VALID,1005.32,VALID,0,VALID,95.0558,VALID,66.3715,VALID,23.1002,VALID,339,VALID,0.6,
2008-06-07, 07:46:04,VALID,1005.38,VALID,0,VALID,95.1016,VALID,67.9806,VALID,23.1391,VALID,350,VALID,0.292188,
2008-06-07, 07:47:04,VALID,1005.43,VALID,0,VALID,95.0711,VALID,69.6901,VALID,23.1603,VALID,349,VALID,0.921094,
2008-06-07, 07:48:04,VALID,1005.42,VALID,0,VALID,94.766,VALID,71.5003,VALID,23.1409,VALID,2,VALID,0.791406,
2008-06-07, 07:49:04,VALID,1005.46,VALID,0,VALID,94.6515,VALID,73.5115,VALID,23.1409,VALID,358,VALID,0.980469,
2008-06-07, 07:50:04,VALID,1005.51,VALID,0,VALID,94.4913,VALID,75.3216,VALID,23.1409,VALID,346,VALID,0.942969,